| time (UTC) | temp F | wind direction | speed MPH | gust MPH | rain 1hr in | rain 24hr in | rain mn in | humidity % | barometer mb |
| 20260505022315 | 65 | 355 | 0.0 | 1.0 | 0.00 | 0.00 | 0.00 | 70 | 1008.9 |
| 20260505021813 | 65 | 39 | 0.0 | 1.0 | 0.00 | 0.00 | 0.00 | 69 | 1008.7 |
| 20260505021309 | 66 | 354 | 1.0 | 2.0 | 0.00 | 0.00 | 0.00 | 67 | 1008.9 |
| 20260505020805 | 66 | 40 | 0.0 | 1.0 | 0.00 | 0.00 | 0.00 | 67 | 1008.8 |
| 20260505020301 | 67 | 30 | 1.0 | 1.0 | 0.00 | 0.00 | 0.00 | 66 | 1008.7 |
| 20260505015758 | 67 | 45 | 1.0 | 1.0 | 0.00 | 0.00 | 0.00 | 65 | 1008.9 |
| 20260505015255 | 68 | 37 | 1.0 | 1.0 | 0.00 | 0.00 | 0.00 | 63 | 1008.6 |
| 20260505014752 | 68 | 47 | 0.0 | 0.0 | 0.00 | 0.00 | 0.00 | 63 | 1008.6 |
| 20260505014249 | 68 | 36 | 1.0 | 1.0 | 0.00 | 0.00 | 0.00 | 62 | 1008.6 |
| 20260505013746 | 69 | 36 | 0.0 | 0.0 | 0.00 | 0.00 | 0.00 | 60 | 1008.6 |
| 20260505013243 | 69 | 327 | 1.0 | 2.0 | 0.00 | 0.00 | 0.00 | 58 | 1008.8 |
| 20260505012741 | 70 | 275 | 2.0 | 2.0 | 0.00 | 0.00 | 0.00 | 58 | 1008.5 |
| 20260505012238 | 70 | 319 | 1.0 | 2.0 | 0.00 | 0.00 | 0.00 | 59 | 1008.9 |
| 20260505011733 | 70 | 309 | 1.0 | 1.0 | 0.00 | 0.00 | 0.00 | 59 | 1008.8 |
| 20260505011231 | 70 | 34 | 0.0 | 0.0 | 0.00 | 0.00 | 0.00 | 59 | 1008.8 |
| 20260505010726 | 71 | 13 | 1.0 | 1.0 | 0.00 | 0.00 | 0.00 | 58 | 1008.8 |
| 20260505010223 | 71 | 13 | 1.0 | 1.0 | 0.00 | 0.00 | 0.00 | 58 | 1008.8 |
| 20260505005720 | 72 | 31 | 0.0 | 1.0 | 0.00 | 0.00 | 0.00 | 58 | 1008.6 |
| 20260505005217 | 73 | 342 | 1.0 | 2.0 | 0.00 | 0.00 | 0.00 | 57 | 1008.8 |
| 20260505004714 | 72 | 25 | 1.0 | 1.0 | 0.00 | 0.00 | 0.00 | 58 | 1008.7 |
| 20260505004210 | 72 | 44 | 0.0 | 0.0 | 0.00 | 0.00 | 0.00 | 56 | 1008.8 |
| 20260505003708 | 73 | 30 | 0.0 | 1.0 | 0.00 | 0.00 | 0.00 | 55 | 1008.6 |
| 20260505003205 | 75 | 43 | 0.0 | 1.0 | 0.00 | 0.00 | 0.00 | 54 | 1008.7 |
| 20260505002701 | 75 | 20 | 0.0 | 0.0 | 0.00 | 0.00 | 0.00 | 54 | 1008.7 |
| 20260505002159 | 76 | 52 | 0.0 | 1.0 | 0.00 | 0.00 | 0.00 | 53 | 1008.5 |
| 20260505001656 | 76 | 61 | 0.0 | 1.0 | 0.00 | 0.00 | 0.00 | 53 | 1008.5 |
| 20260505001154 | 77 | 70 | 2.0 | 2.0 | 0.00 | 0.00 | 0.00 | 52 | 1008.5 |
| 20260505000650 | 77 | 45 | 0.0 | 1.0 | 0.00 | 0.00 | 0.00 | 52 | 1008.6 |
| 20260505000148 | 77 | 79 | 1.0 | 1.0 | 0.00 | 0.00 | 0.00 | 52 | 1008.6 |
| 20260504235644 | 78 | 18 | 1.0 | 1.0 | 0.00 | 0.00 | 0.00 | 51 | 1008.5 |
| 20260504235141 | 77 | 0 | 1.0 | 1.0 | 0.00 | 0.00 | 0.00 | 52 | 1008.5 |
| 20260504234639 | 78 | 82 | 1.0 | 2.0 | 0.00 | 0.00 | 0.00 | 50 | 1008.5 |
| 20260504234136 | 78 | 346 | 1.0 | 2.0 | 0.00 | 0.00 | 0.00 | 49 | 1008.5 |
| 20260504233631 | 78 | 349 | 2.0 | 2.0 | 0.00 | 0.00 | 0.00 | 50 | 1008.5 |
| 20260504233127 | 79 | 61 | 0.0 | 1.0 | 0.00 | 0.00 | 0.00 | 50 | 1008.2 |
| 20260504232625 | 78 | 54 | 2.0 | 2.0 | 0.00 | 0.00 | 0.00 | 50 | 1008.5 |
| 20260504232122 | 79 | 334 | 0.0 | 1.0 | 0.00 | 0.00 | 0.00 | 51 | 1008.4 |
| 20260504231619 | 79 | 30 | 1.0 | 1.0 | 0.00 | 0.00 | 0.00 | 49 | 1008.4 |
| 20260504231115 | 78 | 78 | 2.0 | 2.0 | 0.00 | 0.00 | 0.00 | 49 | 1008.8 |
| 20260504230611 | 79 | 54 | 2.0 | 2.0 | 0.00 | 0.00 | 0.00 | 48 | 1008.6 |
| 20260504230110 | 81 | 77 | 2.0 | 3.0 | 0.00 | 0.00 | 0.00 | 47 | 1008.6 |
| 20260504225608 | 80 | 26 | 1.0 | 1.0 | 0.00 | 0.00 | 0.00 | 48 | 1008.5 |
| 20260504225104 | 80 | 76 | 0.0 | 1.0 | 0.00 | 0.00 | 0.00 | 47 | 1008.5 |
| 20260504224600 | 81 | 12 | 0.0 | 0.0 | 0.00 | 0.00 | 0.00 | 46 | 1008.8 |
| 20260504224058 | 81 | 53 | 1.0 | 2.0 | 0.00 | 0.00 | 0.00 | 46 | 1008.7 |
| 20260504223555 | 80 | 43 | 1.0 | 1.0 | 0.00 | 0.00 | 0.00 | 46 | 1008.8 |
| 20260504223050 | 81 | 80 | 1.0 | 1.0 | 0.00 | 0.00 | 0.00 | 47 | 1008.7 |
| 20260504222547 | 81 | 61 | 0.0 | 1.0 | 0.00 | 0.00 | 0.00 | 46 | 1008.6 |
| 20260504222045 | 80 | 44 | 0.0 | 1.0 | 0.00 | 0.00 | 0.00 | 48 | 1008.9 |
| 20260504221542 | 80 | 314 | 1.0 | 2.0 | 0.00 | 0.00 | 0.00 | 46 | 1008.6 |
| 20260504221039 | 80 | 24 | 0.0 | 0.0 | 0.00 | 0.00 | 0.00 | 47 | 1008.9 |
| 20260504220535 | 79 | 50 | 1.0 | 1.0 | 0.00 | 0.00 | 0.00 | 48 | 1008.7 |
| 20260504220032 | 81 | 73 | 2.0 | 2.0 | 0.00 | 0.00 | 0.00 | 47 | 1008.8 |
| 20260504215528 | 81 | 60 | 1.0 | 1.0 | 0.00 | 0.00 | 0.00 | 47 | 1008.8 |
| 20260504215026 | 83 | 49 | 0.0 | 1.0 | 0.00 | 0.00 | 0.00 | 46 | 1008.8 |
| 20260504214522 | 81 | 37 | 0.0 | 0.0 | 0.00 | 0.00 | 0.00 | 47 | 1009.0 |
| 20260504214018 | 82 | 47 | 1.0 | 2.0 | 0.00 | 0.00 | 0.00 | 46 | 1008.9 |
| 20260504213515 | 81 | 15 | 0.0 | 0.0 | 0.00 | 0.00 | 0.00 | 49 | 1009.2 |
| 20260504213012 | 83 | 324 | 0.0 | 0.0 | 0.00 | 0.00 | 0.00 | 47 | 1009.2 |
| 20260504212508 | 81 | 328 | 1.0 | 1.0 | 0.00 | 0.00 | 0.00 | 48 | 1009.0 |
| 20260504212006 | 82 | 43 | 2.0 | 2.0 | 0.00 | 0.00 | 0.00 | 47 | 1009.2 |
| 20260504211502 | 82 | 325 | 1.0 | 1.0 | 0.00 | 0.00 | 0.00 | 51 | 1009.2 |
| 20260504210959 | 82 | 345 | 1.0 | 1.0 | 0.00 | 0.00 | 0.00 | 48 | 1009.4 |
| 20260504210456 | 81 | 20 | 1.0 | 2.0 | 0.00 | 0.00 | 0.00 | 50 | 1009.4 |
| 20260504205953 | 81 | 357 | 0.0 | 1.0 | 0.00 | 0.00 | 0.00 | 50 | 1009.0 |
| 20260504205450 | 83 | 353 | 0.0 | 1.0 | 0.00 | 0.00 | 0.00 | 48 | 1009.3 |
| 20260504204949 | 80 | 20 | 1.0 | 2.0 | 0.00 | 0.00 | 0.00 | 52 | 1009.2 |
| 20260504204447 | 78 | 320 | 2.0 | 2.0 | 0.00 | 0.00 | 0.00 | 55 | 1009.3 |
| 20260504203945 | 81 | 319 | 3.0 | 3.0 | 0.00 | 0.00 | 0.00 | 51 | 1009.5 |
| 20260504203443 | 81 | 350 | 1.0 | 1.0 | 0.00 | 0.00 | 0.00 | 50 | 1009.4 |
| 20260504202938 | 82 | 323 | 1.0 | 2.0 | 0.00 | 0.00 | 0.00 | 49 | 1009.5 |
| 20260504202435 | 81 | 19 | 0.0 | 0.0 | 0.00 | 0.00 | 0.00 | 52 | 1009.5 |
| 20260504201932 | 81 | 55 | 2.0 | 2.0 | 0.00 | 0.00 | 0.00 | 52 | 1009.4 |
| 20260504201430 | 78 | 21 | 0.0 | 0.0 | 0.00 | 0.00 | 0.00 | 54 | 1009.4 |
| 20260504200927 | 79 | 343 | 0.0 | 0.0 | 0.00 | 0.00 | 0.00 | 55 | 1009.7 |
| 20260504200424 | 80 | 18 | 0.0 | 1.0 | 0.00 | 0.00 | 0.00 | 52 | 1009.7 |
| 20260504195920 | 80 | 19 | 0.0 | 1.0 | 0.00 | 0.00 | 0.00 | 53 | 1009.7 |
| 20260504195416 | 78 | 337 | 1.0 | 1.0 | 0.00 | 0.00 | 0.00 | 55 | 1009.6 |
| 20260504194913 | 81 | 323 | 1.0 | 2.0 | 0.00 | 0.00 | 0.00 | 51 | 1009.7 |
| 20260504194409 | 79 | 358 | 1.0 | 1.0 | 0.00 | 0.00 | 0.00 | 53 | 1009.5 |
| 20260504193905 | 76 | 337 | 0.0 | 0.0 | 0.00 | 0.00 | 0.00 | 57 | 1009.6 |
| 20260504193402 | 78 | 5 | 0.0 | 1.0 | 0.00 | 0.00 | 0.00 | 54 | 1009.4 |
| 20260504192901 | 78 | 15 | 0.0 | 0.0 | 0.00 | 0.00 | 0.00 | 54 | 1009.7 |
| 20260504192358 | 79 | 20 | 0.0 | 0.0 | 0.00 | 0.00 | 0.00 | 52 | 1009.6 |
| 20260504191856 | 76 | 11 | 0.0 | 1.0 | 0.00 | 0.00 | 0.00 | 55 | 1009.7 |
| 20260504191354 | 75 | 303 | 1.0 | 2.0 | 0.00 | 0.00 | 0.00 | 56 | 1009.9 |
| 20260504190849 | 76 | 357 | 0.0 | 0.0 | 0.00 | 0.00 | 0.00 | 55 | 1009.9 |
| 20260504190345 | 77 | 327 | 1.0 | 1.0 | 0.00 | 0.00 | 0.00 | 55 | 1010.0 |
| 20260504185842 | 75 | 78 | 2.0 | 2.0 | 0.00 | 0.00 | 0.00 | 59 | 1010.1 |
| 20260504185339 | 76 | 20 | 0.0 | 1.0 | 0.00 | 0.00 | 0.00 | 56 | 1010.0 |
| 20260504184835 | 77 | 355 | 1.0 | 1.0 | 0.00 | 0.00 | 0.00 | 56 | 1010.1 |
| 20260504184331 | 76 | 9 | 1.0 | 1.0 | 0.00 | 0.00 | 0.00 | 56 | 1010.1 |
| 20260504183827 | 78 | 326 | 2.0 | 3.0 | 0.00 | 0.00 | 0.00 | 56 | 1010.0 |
| 20260504183325 | 76 | 347 | 0.0 | 0.0 | 0.00 | 0.00 | 0.00 | 57 | 1010.1 |
| 20260504182822 | 75 | 320 | 1.0 | 1.0 | 0.00 | 0.00 | 0.00 | 58 | 1010.3 |
| 20260504182320 | 75 | 34 | 0.0 | 1.0 | 0.00 | 0.00 | 0.00 | 57 | 1010.3 |
| 20260504181816 | 77 | 351 | 0.0 | 0.0 | 0.00 | 0.00 | 0.00 | 56 | 1010.1 |
| 20260504181314 | 74 | 22 | 0.0 | 1.0 | 0.00 | 0.00 | 0.00 | 60 | 1010.2 |
| 20260504180813 | 75 | 9 | 0.0 | 0.0 | 0.00 | 0.00 | 0.00 | 57 | 1010.2 |
| 20260504180311 | 75 | 23 | 1.0 | 2.0 | 0.00 | 0.00 | 0.00 | 60 | 1010.4 |
| 20260504175808 | 77 | 17 | 1.0 | 1.0 | 0.00 | 0.00 | 0.00 | 56 | 1010.1 |
| 20260504175305 | 76 | 329 | 0.0 | 0.0 | 0.00 | 0.00 | 0.00 | 60 | 1010.2 |
| 20260504174803 | 74 | 14 | 0.0 | 0.0 | 0.00 | 0.00 | 0.00 | 59 | 1010.3 |
| 20260504174301 | 72 | 310 | 2.0 | 2.0 | 0.00 | 0.00 | 0.00 | 59 | 1010.4 |
| 20260504173757 | 71 | 358 | 1.0 | 1.0 | 0.00 | 0.00 | 0.00 | 60 | 1010.1 |
| 20260504173254 | 73 | 309 | 1.0 | 2.0 | 0.00 | 0.00 | 0.00 | 60 | 1010.4 |
| 20260504172750 | 70 | 3 | 0.0 | 1.0 | 0.00 | 0.00 | 0.00 | 62 | 1010.2 |
| 20260504172247 | 70 | 303 | 4.0 | 5.0 | 0.00 | 0.00 | 0.00 | 63 | 1010.3 |
| 20260504171743 | 70 | 332 | 1.0 | 1.0 | 0.00 | 0.00 | 0.00 | 62 | 1010.3 |
| 20260504171241 | 72 | 326 | 1.0 | 2.0 | 0.00 | 0.00 | 0.00 | 61 | 1010.1 |
| 20260504170738 | 70 | 22 | 0.0 | 1.0 | 0.00 | 0.00 | 0.00 | 63 | 1010.1 |
| 20260504170235 | 70 | 0 | 1.0 | 2.0 | 0.00 | 0.00 | 0.00 | 63 | 1010.2 |
| 20260504160153 | 65 | 18 | 0.0 | 0.0 | 0.00 | 0.00 | 0.00 | 70 | 1009.5 |
| 20260504151121 | 59 | 17 | 0.0 | 0.0 | 0.00 | 0.00 | 0.00 | 84 | 1009.3 |
| 20260504150618 | 58 | 17 | 0.0 | 0.0 | 0.00 | 0.00 | 0.00 | 84 | 1009.2 |
| 20260504150115 | 58 | 17 | 0.0 | 0.0 | 0.00 | 0.00 | 0.00 | 85 | 1009.0 |
| 20260504141044 | 52 | 17 | 0.0 | 0.0 | 0.00 | 0.00 | 0.00 | 91 | 1009.2 |
| 20260504140540 | 52 | 17 | 0.0 | 0.0 | 0.00 | 0.00 | 0.00 | 91 | 1008.8 |
| 20260504130505 | 50 | 17 | 0.0 | 0.0 | 0.00 | 0.00 | 0.00 | 92 | 1008.0 |
| 20260504110352 | 53 | 47 | 0.0 | 0.0 | 0.00 | 0.00 | 0.00 | 89 | 1007.8 |
| 20260504100309 | 54 | 47 | 0.0 | 0.0 | 0.00 | 0.00 | 0.00 | 87 | 1007.3 |
| 20260504081703 | 57 | 47 | 0.0 | 0.0 | 0.00 | 0.00 | 0.00 | 83 | 1007.6 |
| 20260504081159 | 57 | 47 | 0.0 | 0.0 | 0.00 | 0.00 | 0.00 | 83 | 1007.5 |
| 20260504080655 | 58 | 47 | 0.0 | 0.0 | 0.00 | 0.00 | 0.00 | 83 | 1007.5 |
| 20260504080152 | 58 | 47 | 0.0 | 0.0 | 0.00 | 0.00 | 0.00 | 83 | 1007.4 |
| 20260504070120 | 60 | 47 | 0.0 | 0.0 | 0.00 | 0.00 | 0.00 | 78 | 1007.5 |
| 20260504050508 | 64 | 48 | 0.0 | 0.0 | 0.00 | 0.00 | 0.00 | 70 | 1007.6 |
| 20260504050005 | 65 | 48 | 0.0 | 0.0 | 0.00 | 0.00 | 0.00 | 69 | 1007.3 |
| 20260504045501 | 65 | 48 | 0.0 | 0.0 | 0.00 | 0.00 | 0.00 | 69 | 1007.4 |
| 20260504044957 | 65 | 48 | 0.0 | 0.0 | 0.00 | 0.00 | 0.00 | 70 | 1007.4 |
| 20260504044455 | 66 | 48 | 0.0 | 0.0 | 0.00 | 0.00 | 0.00 | 68 | 1007.5 |
| 20260504043952 | 66 | 48 | 0.0 | 0.0 | 0.00 | 0.00 | 0.00 | 68 | 1007.4 |
| 20260504043449 | 66 | 48 | 0.0 | 0.0 | 0.00 | 0.00 | 0.00 | 66 | 1007.5 |
| 20260504042947 | 66 | 48 | 0.0 | 0.0 | 0.00 | 0.00 | 0.00 | 66 | 1007.4 |
| 20260504042443 | 67 | 48 | 0.0 | 0.0 | 0.00 | 0.00 | 0.00 | 67 | 1007.0 |
| 20260504041940 | 67 | 48 | 0.0 | 0.0 | 0.00 | 0.00 | 0.00 | 65 | 1007.0 |
| 20260504041436 | 67 | 48 | 0.0 | 0.0 | 0.00 | 0.00 | 0.00 | 64 | 1007.4 |
| 20260504040932 | 68 | 48 | 0.0 | 0.0 | 0.00 | 0.00 | 0.00 | 65 | 1007.4 |
| 20260504040430 | 68 | 48 | 0.0 | 0.0 | 0.00 | 0.00 | 0.00 | 66 | 1007.2 |
| 20260504035925 | 68 | 48 | 0.0 | 0.0 | 0.00 | 0.00 | 0.00 | 64 | 1007.1 |
| 20260504035423 | 69 | 48 | 0.0 | 0.0 | 0.00 | 0.00 | 0.00 | 63 | 1007.0 |
| 20260504034920 | 69 | 48 | 0.0 | 0.0 | 0.00 | 0.00 | 0.00 | 62 | 1006.9 |
| 20260504034417 | 69 | 48 | 0.0 | 0.0 | 0.00 | 0.00 | 0.00 | 62 | 1006.9 |
| 20260504033914 | 70 | 48 | 0.0 | 0.0 | 0.00 | 0.00 | 0.00 | 61 | 1007.0 |
| 20260504033412 | 70 | 48 | 0.0 | 0.0 | 0.00 | 0.00 | 0.00 | 60 | 1006.9 |
| 20260504032909 | 71 | 48 | 0.0 | 0.0 | 0.00 | 0.00 | 0.00 | 60 | 1006.7 |
| 20260504032406 | 71 | 48 | 0.0 | 0.0 | 0.00 | 0.00 | 0.00 | 60 | 1007.0 |
| 20260504031902 | 71 | 48 | 0.0 | 0.0 | 0.00 | 0.00 | 0.00 | 59 | 1006.7 |
| 20260504031359 | 72 | 48 | 0.0 | 0.0 | 0.00 | 0.00 | 0.00 | 58 | 1006.8 |
| 20260504030855 | 72 | 48 | 0.0 | 0.0 | 0.00 | 0.00 | 0.00 | 57 | 1006.9 |
| 20260504030353 | 73 | 48 | 0.0 | 0.0 | 0.00 | 0.00 | 0.00 | 56 | 1006.7 |
| 20260504025849 | 73 | 48 | 0.0 | 0.0 | 0.00 | 0.00 | 0.00 | 55 | 1006.7 |
| 20260504025346 | 74 | 48 | 0.0 | 0.0 | 0.00 | 0.00 | 0.00 | 55 | 1007.0 |
| 20260504024843 | 74 | 48 | 0.0 | 0.0 | 0.00 | 0.00 | 0.00 | 54 | 1006.9 |
| 20260504024339 | 75 | 48 | 0.0 | 0.0 | 0.00 | 0.00 | 0.00 | 53 | 1006.7 |
| 20260504023836 | 75 | 48 | 0.0 | 0.0 | 0.00 | 0.00 | 0.00 | 52 | 1006.8 |
| 20260504023333 | 76 | 48 | 0.0 | 0.0 | 0.00 | 0.00 | 0.00 | 51 | 1006.7 |
| 20260504022828 | 77 | 48 | 1.0 | 1.0 | 0.00 | 0.00 | 0.00 | 51 | 1006.8 |